Volver al catálogo

STARLINK-4332

ActivoComunicacionesSSO
NORAD 53190·PAYLOAD·🇺🇸 United States

Lanzado Jul 22, 2022 desde Vandenberg Space Force Base

Loading…

Próximos Pases (próximas 24 horas)

TLE

ActualizadoSource: CelesTrak SupGP

Época: Sep 14, 2026, 14:42 UTC

1 53190C 22084B   26257.61298611  .00038287  00000+0  11884-2 0  2578
2 53190  97.2831 313.4739 0001350  95.9281 226.7956 15.33424044    11

Sigue STARLINK-4332 en tiempo real con AllMySat

Download on the App Store